Theta_e
322 312 310 306 297 294 292 295 297 313 316 322 328 326 323 327 323 314 345 352 355 355 357 359 361 361 360 361 361 361 361 361 361 361 361 360 359 358 357 358 359 360 359 361 360 359 357 355 353
318 311 306 300 293 289 291 296 304 310 318 323 326 325 324 321 331 338 342 352 355 356 356 358 362 361 360 360 361 360 360 360 360 360 360 359 358 357 357 359 359 359 359 360 359 359 358 355 353
314 308 301 295 292 293 291 297 310 318 323 323 320 328 328 326 337 341 343 353 356 356 356 358 362 361 361 360 360 360 360 360 360 359 359 358 357 358 359 360 360 359 360 360 360 360 360 357 353
306 303 297 292 293 296 295 300 310 319 321 325 325 320 330 337 339 341 352 354 354 356 355 361 362 361 361 360 360 360 360 360 359 358 358 358 356 357 358 359 360 360 359 360 360 360 360 358 357
302 297 290 287 291 296 298 300 301 317 318 324 327 322 328 334 346 349 352 353 352 354 356 358 361 361 361 360 359 360 360 360 360 359 357 357 357 357 357 358 359 358 357 358 360 360 360 357 357
298 295 288 285 290 295 298 299 299 315 319 324 323 323 319 335 343 347 350 348 353 353 357 357 360 361 360 360 359 359 359 360 360 358 358 358 358 357 356 357 358 357 356 357 358 360 359 357 356
296 291 288 287 290 294 297 299 307 313 319 322 324 316 327 335 344 345 344 348 352 355 356 355 355 358 360 360 360 359 359 360 359 358 357 358 358 357 357 356 356 356 356 357 357 359 358 357 355
297 293 290 290 290 291 297 299 319 321 323 328 332 319 315 331 347 343 345 346 349 352 354 355 356 354 355 356 360 359 359 359 359 358 356 356 357 357 357 354 354 354 355 356 357 360 359 357 355
297 290 287 291 290 293 295 297 301 316 325 328 328 334 332 341 344 341 341 342 345 349 351 352 354 353 351 352 356 359 358 359 359 358 357 353 350 352 353 353 354 353 354 354 356 358 358 357 355
295 289 291 294 293 293 296 296 299 317 320 325 333 338 336 336 339 338 337 337 340 343 347 349 352 352 353 353 352 352 352 354 354 354 352 349 346 346 350 352 354 354 353 354 355 357 357 356 353
292 292 295 298 298 296 297 298 299 314 314 322 330 333 333 329 331 338 337 337 338 341 345 348 349 351 351 351 351 351 350 352 352 351 349 347 345 346 347 346 350 350 351 345 350 353 355 354 351
294 296 297 297 298 297 296 298 300 302 314 308 311 336 333 328 324 335 336 335 335 338 343 347 348 350 350 349 351 351 350 351 349 349 348 345 342 342 342 342 341 345 345 342 343 345 349 351 351
292 295 297 299 298 297 297 298 298 299 304 307 318 337 333 329 325 328 337 336 335 335 339 345 347 347 348 348 350 349 348 349 347 347 348 345 341 339 341 341 340 341 344 342 338 340 343 346 349
297 296 299 299 297 294 296 296 300 301 303 322 332 334 334 331 327 328 332 337 334 335 335 341 344 345 344 347 348 347 348 348 346 345 346 345 342 339 340 340 341 341 343 342 340 337 338 339 343
297 294 297 297 297 296 298 296 297 302 303 315 324 327 330 330 330 329 330 334 336 335 335 336 340 341 341 344 344 344 344 343 344 344 344 345 341 338 338 339 340 341 342 341 340 338 336 335 336
293 292 290 295 298 299 299 291 300 302 300 303 315 320 325 326 328 331 330 330 331 336 334 335 338 339 339 341 340 340 340 341 342 341 342 342 341 339 339 339 340 341 341 341 338 338 335 336 336
291 287 289 294 298 298 297 294 299 301 300 300 301 302 311 316 319 320 326 323 329 334 335 333 335 335 338 338 339 336 338 340 341 340 339 340 338 338 338 340 342 342 341 340 339 337 336 334 335
286 287 290 291 295 295 292 294 297 299 298 299 299 300 301 302 309 320 318 316 325 335 337 336 336 335 337 339 340 341 339 340 341 340 338 337 336 334 336 338 338 341 340 342 340 338 338 337 337
293 292 291 295 298 294 292 292 297 298 296 297 299 299 300 301 305 306 308 312 324 336 338 336 335 334 334 337 339 339 339 339 338 338 338 335 334 335 334 334 334 336 339 340 340 338 337 335 337
294 291 292 295 297 295 292 293 296 298 299 299 299 299 300 301 303 306 306 310 311 327 337 338 336 335 334 337 339 341 341 338 338 338 337 336 335 336 334 331 328 335 338 339 338 338 333 333 333
292 291 291 293 295 294 293 292 293 298 300 303 304 304 305 303 304 308 307 305 309 313 326 338 339 338 336 337 336 335 336 334 334 333 334 335 335 336 335 332 332 335 338 338 339 337 333 330 330
289 296 296 294 291 287 293 284 290 294 298 301 302 304 304 305 306 307 310 309 305 310 317 334 340 340 338 336 338 337 338 335 334 338 337 335 334 335 335 333 333 335 339 337 337 335 334 333 331
295 298 295 294 290 288 288 286 289 292 295 298 300 304 305 306 306 308 312 313 311 307 312 321 336 341 340 337 338 339 336 338 335 331 333 329 329 332 336 336 336 336 338 338 338 336 336 336 333
299 294 292 289 287 283 287 287 286 292 295 297 300 303 305 306 306 309 313 314 313 314 310 316 331 338 339 336 337 337 337 333 330 328 330 328 326 326 332 337 338 339 338 336 336 337 337 337 335
295 289 284 283 283 283 289 288 287 297 300 300 299 300 303 304 305 308 310 311 314 314 316 315 327 334 338 335 335 334 336 333 333 332 331 327 326 325 326 335 337 337 338 337 336 336 336 336 335
291 290 284 280 281 284 290 285 290 299 298 299 301 300 301 303 304 306 310 310 312 313 316 318 322 329 333 334 334 332 330 332 331 333 333 331 331 330 329 332 338 338 338 337 336 336 335 334 334
292 288 291 285 284 282 285 290 295 295 296 297 298 300 301 302 305 305 308 311 311 313 313 315 320 323 325 332 332 330 326 326 328 331 332 333 333 332 329 334 337 337 337 337 336 335 334 333 332
293 294 286 284 280 279 283 285 286 290 292 294 295 297 300 302 304 307 307 309 311 311 313 314 315 315 320 328 334 334 330 326 326 329 330 332 333 332 333 335 337 337 337 337 336 334 332 331 330
289 286 286 285 283 280 279 282 291 291 293 293 294 297 299 300 302 305 308 309 310 311 313 314 315 314 314 316 324 330 333 333 329 327 329 330 331 332 332 334 335 336 336 337 335 333 330 329 326
290 285 284 281 280 281 281 281 295 294 294 295 295 297 299 301 302 304 306 309 310 312 313 313 314 315 315 316 316 317 323 328 330 331 330 331 330 330 331 332 334 335 336 335 335 330 329 326 323
Wind_Speed
2 2 3 4 5 5 3 5 3 2 2 3 4 3 6 1 6 6 3 4 15 10 12 16 18 18 17 19 18 17 15 15 15 15 14 14 13 13 12 11 11 11 13 12 12 13 14 14 13
2 4 4 3 6 4 4 5 4 3 0 2 1 1 2 3 0 3 4 4 14 13 8 13 17 18 18 19 19 17 16 14 14 14 14 13 12 12 11 10 10 12 13 13 13 13 13 13 12
2 3 4 5 3 4 5 5 6 1 3 2 2 1 2 3 2 5 5 10 9 9 9 13 17 17 18 18 18 17 16 14 13 13 13 12 11 11 10 9 9 10 11 12 12 12 12 12 11
2 5 6 6 3 2 3 7 3 3 2 1 2 3 1 1 1 3 7 13 14 9 9 15 18 16 16 18 18 17 15 14 14 12 12 12 11 10 10 9 9 9 11 11 12 12 12 11 10
5 4 5 3 4 4 5 5 5 5 2 4 5 2 3 2 6 7 10 12 12 11 10 12 17 19 18 18 17 17 15 12 13 13 13 11 10 8 8 8 7 7 8 9 9 10 11 11 9
5 4 6 2 4 5 7 5 4 5 3 0 1 2 4 2 0 5 8 10 13 14 10 8 16 16 17 17 16 15 15 14 12 12 11 9 9 8 7 7 6 6 6 6 7 7 8 8 9
7 5 5 4 2 5 5 6 5 6 3 5 3 4 1 2 5 6 7 6 7 8 9 7 6 12 16 16 15 15 15 14 13 12 12 12 10 9 8 8 7 7 6 6 6 7 8 8 8
6 6 4 3 2 4 6 7 3 5 5 1 6 6 3 4 9 9 7 6 6 5 7 8 6 8 9 10 16 15 14 13 12 11 12 12 12 11 10 9 7 7 6 5 6 8 9 8 7
4 6 1 4 5 4 5 9 4 1 5 3 6 1 1 15 10 9 8 5 5 6 9 10 10 5 4 6 10 13 16 15 15 12 12 10 4 6 8 8 8 7 6 6 7 7 8 8 7
6 5 10 5 3 2 4 3 4 3 2 3 5 6 9 12 11 11 9 10 9 10 12 11 11 10 8 6 6 5 7 5 5 6 7 4 5 5 6 8 10 9 8 7 6 6 6 7 3
3 6 6 5 7 4 4 6 2 6 2 7 8 7 8 11 6 9 9 9 10 10 9 12 10 10 10 5 4 3 2 3 4 5 4 4 3 3 2 2 2 3 6 2 3 2 2 3 3
1 5 5 5 4 3 4 3 6 3 7 5 7 0 7 8 9 9 11 10 10 11 10 11 10 12 11 4 5 5 4 4 4 4 5 3 2 3 3 2 3 3 2 3 2 1 2 3 5
3 3 4 7 8 8 1 8 5 6 6 3 4 8 7 6 7 5 4 6 7 13 11 12 11 12 10 7 7 6 5 6 4 4 4 4 4 4 2 3 3 2 3 3 3 3 3 3 3
5 3 6 5 4 4 5 0 7 7 5 3 5 11 7 8 9 5 7 9 11 9 13 10 10 8 7 7 9 7 6 5 4 4 5 6 4 3 3 3 3 2 3 4 4 4 3 3 3
1 4 6 4 1 3 5 4 4 4 4 5 7 6 5 8 2 10 7 8 7 7 9 13 13 11 10 9 8 6 6 5 5 5 5 6 5 5 5 3 3 3 3 4 3 3 2 3 2
2 4 2 4 0 2 6 6 10 8 6 9 9 7 7 8 10 10 9 10 9 7 13 9 11 13 12 11 7 6 5 5 5 4 4 6 6 6 5 3 3 3 3 3 3 3 3 3 3
7 3 3 6 5 1 4 6 4 5 7 10 9 9 9 8 10 11 12 13 11 15 12 12 12 13 14 8 6 5 6 5 4 3 4 5 6 6 4 4 3 3 3 3 3 3 3 3 3
2 2 3 4 0 2 1 7 6 6 6 7 6 6 7 8 16 18 16 13 13 9 12 12 13 12 11 6 5 4 4 4 4 4 5 6 5 6 6 4 4 3 2 2 3 3 2 2 2
2 3 4 6 5 1 4 4 9 7 2 2 5 5 7 9 8 7 6 6 4 5 8 13 13 11 10 7 7 3 6 6 3 5 7 7 5 6 5 3 3 4 4 3 3 3 2 0 1
5 3 8 8 4 6 2 4 4 4 7 7 9 11 11 11 10 6 9 4 6 8 9 9 15 12 13 10 8 3 5 3 2 4 4 6 8 8 7 7 5 5 3 4 4 3 2 2 1
4 5 5 8 4 2 1 6 6 4 11 11 10 6 8 10 14 16 14 9 7 11 12 15 17 15 14 11 6 3 4 3 1 1 2 6 8 8 7 7 6 4 4 4 4 4 5 3 1
4 8 5 3 4 4 2 4 5 4 9 10 9 10 9 9 8 8 12 13 10 14 14 15 13 14 14 15 13 11 7 7 4 5 4 4 7 7 8 8 7 6 4 4 4 4 3 4 4
9 4 4 3 5 4 1 6 7 2 7 7 9 10 11 11 11 13 14 13 14 13 13 14 13 12 14 16 16 12 7 6 2 2 6 4 4 6 7 7 7 6 5 5 6 6 5 2 3
1 3 7 5 4 2 5 7 4 2 1 3 6 8 10 11 11 11 13 13 12 10 8 6 12 13 14 15 15 16 15 9 5 4 6 5 4 4 6 7 7 6 6 6 5 4 5 4 3
5 6 3 4 2 6 4 3 4 3 2 3 5 8 9 8 10 13 16 16 15 15 9 2 4 6 9 13 14 15 14 12 14 11 9 6 4 4 7 8 7 6 7 7 5 5 4 4 4
3 7 7 6 4 4 2 5 6 5 6 4 4 5 8 13 11 11 12 12 11 12 13 8 5 3 1 3 9 10 9 9 9 9 7 7 6 7 6 8 7 7 7 6 6 4 4 4 3
4 2 4 7 3 3 3 3 1 3 2 4 6 9 11 12 14 12 12 11 12 11 11 11 9 4 4 2 2 6 4 7 11 7 6 7 7 5 7 9 10 8 8 9 8 5 5 5 4
3 5 3 3 5 5 4 3 5 3 6 7 9 8 8 9 13 15 11 12 10 10 7 8 9 8 7 6 3 4 4 5 6 5 8 9 9 7 8 10 11 10 9 8 8 5 4 6 4
6 4 6 4 4 6 3 5 5 5 2 3 6 7 7 7 8 9 12 9 10 8 10 9 7 8 9 8 8 6 3 5 5 6 6 8 7 9 10 11 11 11 11 10 9 9 8 8 5
4 2 3 5 2 1 2 6 5 5 2 3 5 5 6 6 6 6 9 10 9 10 9 9 11 9 6 7 10 10 8 4 4 5 8 6 10 7 11 10 11 12 12 12 12 10 10 10 9
Wind_Direction
8 102 118 54 56 61 324 305 268 67 7 352 100 174 192 80 171 217 352 155 119 137 145 135 139 137 130 122 114 110 109 112 114 117 118 119 120 121 121 121 118 116 116 115 117 120 119 118 115
68 124 52 87 85 65 281 276 317 201 101 135 140 40 147 201 276 88 127 143 123 138 152 132 140 138 134 127 124 122 120 120 122 122 123 123 123 122 123 121 123 124 124 126 127 131 129 129 128
122 49 84 94 120 165 185 253 280 161 113 107 110 161 154 222 109 180 179 122 114 130 141 136 139 138 137 134 131 129 127 128 127 128 128 126 123 121 121 122 125 128 128 129 134 135 135 138 140
91 15 34 83 199 266 194 246 275 162 46 128 129 269 255 173 262 72 128 136 130 143 137 140 139 140 141 140 137 134 137 136 134 135 134 135 137 136 137 138 139 136 137 137 140 141 139 140 146
37 56 61 78 288 260 249 242 219 192 162 202 145 269 263 234 318 146 138 135 143 147 143 145 146 147 150 149 144 141 140 143 145 147 147 148 145 144 141 137 135 137 136 134 137 139 136 137 134
47 95 65 176 250 264 272 243 166 190 238 236 85 125 245 357 144 145 138 147 146 150 146 149 152 152 151 151 146 148 148 153 154 150 147 148 151 149 143 140 139 140 132 131 134 134 132 133 131
109 81 169 196 255 294 266 319 175 154 170 234 164 187 187 222 189 108 110 107 124 132 134 129 156 157 153 149 154 157 152 158 162 160 156 160 165 162 160 160 159 154 150 146 145 147 146 146 144
106 91 131 257 195 271 321 340 129 159 199 76 148 237 275 192 131 125 108 108 107 108 142 143 150 169 158 157 165 161 161 165 162 164 168 174 174 173 172 172 175 175 169 164 156 153 152 155 158
124 65 174 243 173 265 338 6 351 6 117 240 205 264 149 136 125 113 108 89 102 123 157 165 175 184 142 139 173 172 171 171 174 176 181 180 164 177 185 182 189 182 186 183 178 167 160 159 171
91 114 212 217 214 306 307 307 318 166 131 290 302 85 114 128 144 144 157 164 165 168 174 177 181 180 170 171 177 166 187 178 165 178 188 179 177 182 184 190 192 191 196 200 197 191 179 161 170
158 172 210 256 223 212 265 315 230 131 264 232 224 155 153 140 137 158 175 188 178 172 176 179 174 177 179 174 164 166 171 170 176 182 174 187 179 194 184 199 182 187 203 202 211 209 194 161 164
169 224 193 273 242 192 206 205 300 227 213 214 245 311 156 160 168 182 179 175 163 179 188 179 175 175 184 151 177 181 180 194 188 174 176 168 181 192 193 205 209 195 177 193 210 213 188 184 186
181 269 188 253 281 248 237 231 204 257 248 300 216 126 192 174 179 196 189 188 176 181 184 185 178 180 177 165 177 186 191 195 183 169 175 175 185 197 182 216 218 205 171 183 200 215 220 213 218
203 255 281 284 274 256 181 223 139 231 232 175 201 183 196 210 198 153 211 205 190 186 182 178 186 175 175 173 177 188 194 201 171 186 188 185 180 190 199 215 226 209 186 197 206 215 238 232 236
268 318 334 246 201 260 160 3 220 228 196 194 211 273 221 220 203 236 217 226 189 194 179 189 179 172 177 188 180 179 183 178 194 200 182 188 178 195 206 219 233 220 210 203 209 216 220 246 234
23 45 49 279 229 222 111 256 261 254 179 213 225 222 217 240 223 239 239 221 213 180 195 185 185 184 182 187 182 180 184 191 200 186 182 194 181 189 204 206 236 210 206 207 174 199 230 225 221
3 225 231 314 192 301 170 242 242 286 229 205 222 227 212 226 241 241 234 231 214 201 183 185 184 187 189 176 167 159 179 198 198 176 190 190 183 187 179 196 225 208 206 207 189 183 178 203 226
276 21 335 270 275 21 194 268 294 301 231 264 187 262 263 246 234 227 227 222 226 196 184 185 182 181 175 145 136 152 169 200 186 200 199 177 195 175 179 188 207 179 182 201 173 161 163 203 200
227 230 236 254 232 292 268 271 299 325 101 283 300 289 251 258 306 294 311 323 262 199 185 192 181 173 160 170 170 166 205 201 198 208 195 177 175 174 174 191 197 200 203 193 154 140 144 60 107
203 256 270 283 279 160 245 270 293 31 56 29 25 12 0 354 345 332 299 243 243 239 236 200 200 179 187 185 179 170 170 186 182 191 196 172 178 181 183 186 198 196 181 194 172 156 147 147 161
236 185 238 213 7 87 137 341 340 46 51 37 34 11 4 358 345 344 340 299 247 211 206 217 200 191 190 171 134 92 90 77 146 155 220 205 175 176 181 183 182 182 181 187 177 162 146 148 85
271 196 220 196 101 224 62 251 296 78 40 31 8 11 1 349 335 322 333 326 292 251 228 211 211 191 185 173 177 179 182 181 200 201 199 201 170 173 179 182 182 185 187 178 175 171 168 143 141
230 151 195 186 155 116 337 96 268 65 43 3 352 357 355 347 341 338 342 325 298 275 243 212 200 199 188 184 186 180 181 194 156 166 185 186 181 173 183 188 185 189 187 185 182 176 161 135 138
287 99 45 53 94 110 222 142 303 42 43 344 354 353 349 347 344 346 345 342 336 327 265 223 198 196 188 186 184 185 188 177 162 170 200 209 179 175 191 188 187 186 185 184 188 171 164 159 134
86 66 327 341 1 215 171 99 176 143 22 22 350 337 337 340 350 354 358 357 355 1 356 3 232 202 196 191 186 189 192 185 196 190 195 189 168 193 205 184 186 191 190 184 168 166 170 170 170
160 147 161 212 201 244 339 208 198 130 30 24 358 328 350 356 349 355 358 352 355 24 13 10 38 17 30 234 239 195 188 194 203 196 193 200 197 199 177 189 190 196 185 177 171 170 168 166 172
186 161 173 108 25 81 223 72 29 84 76 358 6 7 5 357 349 345 348 360 352 10 39 31 14 30 59 43 238 248 246 197 199 182 188 195 203 196 180 184 193 192 191 179 174 179 172 162 167
100 150 89 17 170 227 276 227 164 15 351 352 5 2 351 351 350 350 350 350 356 348 347 45 59 42 13 355 205 216 226 223 199 176 200 193 204 191 179 186 194 191 192 183 172 166 152 162 171
352 359 41 109 127 181 192 247 177 167 228 339 343 335 335 341 344 344 350 346 346 354 355 350 34 40 43 39 9 344 287 214 201 214 209 217 208 198 196 197 197 196 191 183 183 185 161 164 168
109 121 96 126 233 333 145 257 136 168 194 349 334 312 319 320 332 349 357 0 0 353 354 4 352 7 21 50 65 36 3 343 270 259 234 233 228 210 216 205 201 198 194 184 191 176 178 166 175